• In Netherlands
  • List of Countries
  • For 7 days
  • Water Temperature
  • Satellite Maps
  • Weather Map
  • Weather Widgets
  • user-avatar
    Login

    Hourly Weather Tirana

    Today, 26 May, Friday

    Time Temperature Precipitation Wind Pressure Humidity
    00:00 +13°C° 0.4 mm 3 mps 751 mmHg 92%
    01:00 +13°C° 0.4 mm 3 mps 751 mmHg 92%
    02:00 +13°C° 0.2 mm 3 mps 751 mmHg 92%
    03:00 +13°C° 0.2 mm 3 mps 750 mmHg 91%
    04:00 +12°C° 0.2 mm 3 mps 750 mmHg 91%
    05:00 +13°C° 0.2 mm 3 mps 750 mmHg 86%
    06:00 +16°C° 0.2 mm 3 mps 751 mmHg 82%
    07:00 +17°C° 0.2 mm 3 mps 751 mmHg 78%
    08:00 +19°C° 0.1 mm 3 mps 751 mmHg 71%
    09:00 +20°C° 0.1 mm 3 mps 751 mmHg 63%
    10:00 +22°C° 0.1 mm 3 mps 751 mmHg 56%
    11:00 +22°C° 0.1 mm 4 mps 751 mmHg 56%
    12:00 +22°C° 0.1 mm 4 mps 751 mmHg 56%
    13:00 +22°C° 0.1 mm 5 mps 751 mmHg 55%
    14:00 +22°C° 0.1 mm 5 mps 751 mmHg 57%
    15:00 +22°C° 0.1 mm 5 mps 751 mmHg 58%
    16:00 +22°C° 0.1 mm 6 mps 751 mmHg 60%
    17:00 +20°C° 0 mm 5 mps 751 mmHg 67%
    18:00 +17°C° 0 mm 5 mps 751 mmHg 75%
    19:00 +16°C° 0 mm 5 mps 751 mmHg 83%
    20:00 +15°C° 0 mm 4 mps 751 mmHg 82%
    21:00 +15°C° 0 mm 4 mps 751 mmHg 82%
    22:00 +16°C° 0 mm 3 mps 752 mmHg 81%
    23:00 +16°C° 0 mm 3 mps 752 mmHg 81%

    Tomorrow, 27 May, Saturday

    Time Temperature Precipitation Wind Pressure Humidity
    00:00 +16°C° 0 mm 3 mps 752 mmHg 82%
    01:00 +14°C° 0 mm 3 mps 752 mmHg 82%
    02:00 +14°C° 0 mm 3 mps 752 mmHg 82%
    03:00 +14°C° 0 mm 3 mps 752 mmHg 83%
    04:00 +14°C° 0 mm 3 mps 752 mmHg 83%
    05:00 +16°C° 0 mm 3 mps 752 mmHg 77%
    06:00 +18°C° 0 mm 3 mps 752 mmHg 71%
    07:00 +20°C° 0 mm 3 mps 752 mmHg 66%
    08:00 +22°C° 0 mm 3 mps 753 mmHg 59%
    09:00 +25°C° 0 mm 3 mps 753 mmHg 52%
    10:00 +26°C° 0 mm 3 mps 753 mmHg 45%
    11:00 +27°C° 0.1 mm 4 mps 753 mmHg 45%
    12:00 +27°C° 0.1 mm 4 mps 753 mmHg 46%
    13:00 +27°C° 0.1 mm 5 mps 753 mmHg 46%
    14:00 +26°C° 0.1 mm 5 mps 752 mmHg 48%
    15:00 +26°C° 0.1 mm 6 mps 752 mmHg 49%
    16:00 +26°C° 0.1 mm 6 mps 752 mmHg 51%
    17:00 +22°C° 0.1 mm 6 mps 752 mmHg 60%
    18:00 +20°C° 0.1 mm 5 mps 753 mmHg 68%
    19:00 +17°C° 0.1 mm 5 mps 753 mmHg 76%
    20:00 +16°C° 0 mm 5 mps 753 mmHg 76%
    21:00 +16°C° 0 mm 5 mps 754 mmHg 76%
    22:00 +15°C° 0 mm 4 mps 754 mmHg 76%
    23:00 +15°C° 0 mm 4 mps 754 mmHg 77%

    Day after tomorrow, 28 May, Sunday

    Time Temperature Precipitation Wind Pressure Humidity
    00:00 +15°C° 0 mm 4 mps 754 mmHg 77%
    01:00 +15°C° 0 mm 4 mps 754 mmHg 77%
    02:00 +14°C° 0 mm 4 mps 754 mmHg 77%
    03:00 +14°C° 0 mm 4 mps 754 mmHg 77%
    04:00 +14°C° 0 mm 4 mps 755 mmHg 77%
    05:00 +17°C° 0 mm 4 mps 755 mmHg 72%
    06:00 +19°C° 0 mm 4 mps 755 mmHg 66%
    07:00 +20°C° 0 mm 4 mps 755 mmHg 61%
    08:00 +22°C° 0 mm 4 mps 756 mmHg 53%
    09:00 +25°C° 0 mm 4 mps 756 mmHg 46%
    10:00 +27°C° 0 mm 4 mps 756 mmHg 39%
    11:00 +27°C° 0 mm 4 mps 756 mmHg 37%
    12:00 +28°C° 0 mm 4 mps 756 mmHg 35%
    13:00 +29°C° 0 mm 4 mps 756 mmHg 34%
    14:00 +28°C° 0.1 mm 5 mps 756 mmHg 38%
    15:00 +28°C° 0.1 mm 5 mps 756 mmHg 42%
    16:00 +28°C° 0.1 mm 5 mps 756 mmHg 46%
    17:00 +25°C° 0.1 mm 5 mps 756 mmHg 54%
    18:00 +22°C° 0.1 mm 5 mps 756 mmHg 63%
    19:00 +19°C° 0.1 mm 4 mps 756 mmHg 71%
    20:00 +19°C° 0 mm 4 mps 757 mmHg 73%
    21:00 +18°C° 0 mm 4 mps 757 mmHg 74%
    22:00 +18°C° 0 mm 3 mps 758 mmHg 76%
    23:00 +17°C° 0 mm 3 mps 757 mmHg 76%

    29 May, Monday

    Time Temperature Precipitation Wind Pressure Humidity
    00:00 +17°C° 0 mm 3 mps 757 mmHg 76%
    01:00 +17°C° 0 mm 3 mps 757 mmHg 77%
    02:00 +16°C° 0 mm 3 mps 757 mmHg 77%
    03:00 +16°C° 0 mm 3 mps 757 mmHg 77%
    04:00 +16°C° 0 mm 3 mps 757 mmHg 77%
    05:00 +18°C° 0 mm 2 mps 757 mmHg 72%
    06:00 +20°C° 0 mm 2 mps 757 mmHg 67%
    07:00 +21°C° 0 mm 2 mps 757 mmHg 62%
    08:00 +24°C° 0 mm 2 mps 757 mmHg 55%
    09:00 +26°C° 0 mm 1 mps 757 mmHg 48%
    10:00 +28°C° 0 mm 1 mps 756 mmHg 40%
    11:00 +28°C° 0 mm 2 mps 756 mmHg 41%
    12:00 +28°C° 0 mm 2 mps 756 mmHg 41%
    13:00 +28°C° 0 mm 3 mps 755 mmHg 42%
    14:00 +27°C° 0 mm 3 mps 755 mmHg 45%
    15:00 +27°C° 0 mm 3 mps 755 mmHg 48%
    16:00 +26°C° 0 mm 3 mps 755 mmHg 51%
    17:00 +24°C° 0 mm 3 mps 755 mmHg 60%
    18:00 +21°C° 0 mm 2 mps 755 mmHg 69%
    19:00 +19°C° 0 mm 2 mps 755 mmHg 78%
    20:00 +19°C° 0 mm 1 mps 755 mmHg 79%
    21:00 +18°C° 0 mm 1 mps 755 mmHg 80%
    22:00 +18°C° 0 mm 1 mps 755 mmHg 81%
    23:00 +16°C° 0 mm 1 mps 755 mmHg 80%

    30 May, Tuesday

    Time Temperature Precipitation Wind Pressure Humidity
    00:00 +16°C° 0 mm 1 mps 755 mmHg 80%
    01:00 +16°C° 0 mm 1 mps 755 mmHg 79%
    02:00 +16°C° 0 mm 1 mps 754 mmHg 79%
    03:00 +16°C° 0 mm 1 mps 754 mmHg 78%
    04:00 +15°C° 0 mm 1 mps 754 mmHg 78%
    05:00 +19°C° 0 mm 1 mps 754 mmHg 70%
    06:00 +21°C° 0 mm 1 mps 755 mmHg 63%
    07:00 +24°C° 0 mm 1 mps 755 mmHg 55%
    08:00 +25°C° 0 mm 1 mps 755 mmHg 51%
    09:00 +27°C° 0 mm 1 mps 755 mmHg 46%
    10:00 +28°C° 0 mm 1 mps 755 mmHg 42%
    11:00 +29°C° 0 mm 2 mps 755 mmHg 41%
    12:00 +29°C° 0 mm 3 mps 754 mmHg 40%
    13:00 +30°C° 0 mm 4 mps 754 mmHg 39%
    14:00 +29°C° 0 mm 4 mps 754 mmHg 42%
    15:00 +28°C° 0 mm 3 mps 754 mmHg 45%
    16:00 +27°C° 0 mm 3 mps 754 mmHg 48%
    17:00 +25°C° 0 mm 2 mps 754 mmHg 59%
    18:00 +21°C° 0 mm 2 mps 754 mmHg 70%
    19:00 +20°C° 0 mm 1 mps 754 mmHg 81%
    20:00 +19°C° 0 mm 1 mps 754 mmHg 82%
    21:00 +16°C° 0 mm 0 mps 755 mmHg 84%
    22:00 +16°C° 0 mm 0 mps 755 mmHg 85%
    23:00 +15°C° 0 mm 0 mps 755 mmHg 86%

    31 May, Wednesday

    Time Temperature Precipitation Wind Pressure Humidity
    00:00 +16°C° 0 mm 1 mps 755 mmHg 86%
    01:00 +16°C° 0 mm 1 mps 755 mmHg 87%
    02:00 +15°C° 0 mm 1 mps 755 mmHg 87%
    03:00 +15°C° 0 mm 1 mps 755 mmHg 87%
    04:00 +14°C° 0 mm 0 mps 754 mmHg 88%
    05:00 +17°C° 0 mm 0 mps 755 mmHg 77%
    06:00 +19°C° 0 mm 0 mps 755 mmHg 67%
    07:00 +22°C° 0 mm 0 mps 755 mmHg 57%
    08:00 +26°C° 0 mm 1 mps 755 mmHg 53%
    09:00 +27°C° 0 mm 1 mps 755 mmHg 49%
    10:00 +28°C° 0 mm 1 mps 755 mmHg 45%
    11:00 +29°C° 0 mm 2 mps 755 mmHg 44%
    12:00 +29°C° 0 mm 3 mps 755 mmHg 44%
    13:00 +30°C° 0 mm 3 mps 755 mmHg 43%
    14:00 +29°C° 0 mm 3 mps 755 mmHg 46%
    15:00 +29°C° 0 mm 3 mps 754 mmHg 48%
    16:00 +28°C° 0 mm 3 mps 754 mmHg 51%
    17:00 +26°C° 0 mm 2 mps 754 mmHg 61%
    18:00 +23°C° 0 mm 2 mps 755 mmHg 71%
    19:00 +20°C° 0 mm 1 mps 755 mmHg 81%
    20:00 +20°C° 0 mm 1 mps 755 mmHg 83%
    21:00 +19°C° 0 mm 1 mps 755 mmHg 84%
    22:00 +16°C° 0 mm 0 mps 755 mmHg 86%
    23:00 +16°C° 0 mm 0 mps 755 mmHg 86%
    Show more